Location: Doverdale
(52.2833°N, 2.2000°W)
Time: 03:39:03
(UTC+00:00)

Cosmos 2278 Rocket - Pass Details

Date: 29 October 2020
Orbit: 840 x 846 km, 71.0° (Epoch: 23 November)

Event Time Altitude Azimuth Distance (km) Brightness Sun altitude
Rises 18:15:31 0° 311° (NW) 3,409 6.1 -14.4°
Reaches altitude 10° 18:20:04 10° 344° (NNW) 2,475 4.8 -15.1°
Maximum altitude 18:21:51 11° 3° (N) 2,377 4.5 -15.3°
Drops below altitude 10° 18:23:39 10° 21° (NNE) 2,477 4.4 -15.6°
Enters shadow 18:25:07 - 35° (NE) 2,694 4.5 -15.8°
